Time,TemperatureF,DewpointF,PressureIn,WindDirection,WindDirectionDegrees,WindSpeedMPH,WindSpeedGustMPH,Humidity,HourlyPrecipIn,Conditions,Clouds,dailyrainin,SolarRadiationWatts/m^2,SoftwareType,DateUTC
2013-11-08 00:04:00,24.2,20.6,29.88,East,100,0.0,0.0,86,0.00,CLR,,0.00,0.0,WeatherDisplay:10.37,2013-11-08 09:04:00,
2013-11-08 00:09:00,24.2,20.9,29.89,East,100,2.3,2.3,87,0.00,CLR,,0.00,0.0,WeatherDisplay:10.37,2013-11-08 09:09:00,
2013-11-08 00:14:00,24.2,20.9,29.89,East,100,0.0,0.0,87,0.00,CLR,,0.00,0.0,WeatherDisplay:10.37,2013-11-08 09:14:00,
2013-11-08 00:19:00,24.3,21.0,29.89,East,100,0.0,0.0,87,0.00,CLR,,0.00,0.0,WeatherDisplay:10.37,2013-11-08 09:19:00,
2013-11-08 00:24:00,24.3,21.0,29.89,East,100,0.0,0.0,87,0.00,CLR,,0.00,0.0,WeatherDisplay:10.37,2013-11-08 09:24:00,
2013-11-08 00:29:00,24.3,20.7,29.89,East,100,0.0,0.0,86,0.00,CLR,,0.00,0.0,WeatherDisplay:10.37,2013-11-08 09:29:00,
2013-11-08 00:34:00,24.3,20.7,29.90,East,100,0.0,0.0,86,0.00,CLR,,0.00,0.0,WeatherDisplay:10.37,2013-11-08 09:34:00,
2013-11-08 00:39:00,24.2,20.9,29.90,East,100,0.0,0.0,87,0.00,CLR,,0.00,0.0,WeatherDisplay:10.37,2013-11-08 09:39:00,
2013-11-08 00:45:00,24.2,20.6,29.90,East,100,0.0,0.0,86,0.00,CLR,,0.00,0.0,WeatherDisplay:10.37,2013-11-08 09:45:00,
2013-11-08 00:50:00,24.1,20.5,29.90,East,100,0.0,0.0,86,0.00,CLR,,0.00,0.0,WeatherDisplay:10.37,2013-11-08 09:50:00,
2013-11-08 00:55:00,24.0,20.7,29.90,East,100,0.0,0.0,87,0.00,CLR,,0.00,0.0,WeatherDisplay:10.37,2013-11-08 09:55:00,
2013-11-08 01:00:00,24.0,20.7,29.90,East,100,0.0,0.0,87,0.00,CLR,,0.00,0.0,WeatherDisplay:10.37,2013-11-08 10:00:00,
2013-11-08 01:05:00,23.9,20.6,29.90,East,100,0.0,0.0,87,0.00,FEW,,0.00,0.0,WeatherDisplay:10.37,2013-11-08 10:05:00,
2013-11-08 01:10:00,23.8,20.5,29.91,East,100,0.0,0.0,87,0.00,FEW,,0.00,0.0,WeatherDisplay:10.37,2013-11-08 10:10:00,
2013-11-08 01:15:00,23.7,20.4,29.91,East,100,0.0,0.0,87,0.00,FEW,,0.00,0.0,WeatherDisplay:10.37,2013-11-08 10:15:00,
2013-11-08 01:20:00,23.5,20.2,29.91,East,100,0.0,0.0,87,0.00,FEW,,0.00,0.0,WeatherDisplay:10.37,2013-11-08 10:20:00,
2013-11-08 01:25:00,23.4,20.1,29.91,East,100,0.0,0.0,87,0.00,FEW,,0.00,0.0,WeatherDisplay:10.37,2013-11-08 10:25:00,
2013-11-08 01:30:00,23.3,20.0,29.91,East,100,0.0,0.0,87,0.00,FEW,,0.00,0.0,WeatherDisplay:10.37,2013-11-08 10:30:00,
2013-11-08 01:35:00,23.1,19.8,29.91,East,100,0.0,0.0,87,0.00,FEW,,0.00,0.0,WeatherDisplay:10.37,2013-11-08 10:35:00,
2013-11-08 01:40:00,23.0,21.8,29.91,East,100,0.0,0.0,95,0.00,FEW,,0.00,0.0,WeatherDisplay:10.37,2013-11-08 10:40:00,
2013-11-08 01:45:00,22.9,19.6,29.91,East,100,0.0,0.0,87,0.00,FEW,,0.00,0.0,WeatherDisplay:10.37,2013-11-08 10:45:00,
2013-11-08 01:50:00,22.7,19.7,29.91,East,100,0.0,0.0,88,0.00,FEW,,0.00,0.0,WeatherDisplay:10.37,2013-11-08 10:50:00,
2013-11-08 01:55:00,22.6,19.6,29.91,East,100,0.0,0.0,88,0.00,FEW,,0.00,0.0,WeatherDisplay:10.37,2013-11-08 10:55:00,
2013-11-08 02:00:00,22.5,19.5,29.92,East,100,0.0,0.0,88,0.00,FEW,,0.00,0.0,WeatherDisplay:10.37,2013-11-08 11:00:00,
2013-11-08 02:05:00,22.4,19.4,29.92,East,100,0.0,0.0,88,0.00,CLR,,0.00,0.0,WeatherDisplay:10.37,2013-11-08 11:05:00,
2013-11-08 02:10:00,22.2,19.2,29.92,East,100,0.0,0.0,88,0.00,CLR,,0.00,0.0,WeatherDisplay:10.37,2013-11-08 11:10:00,
2013-11-08 02:15:00,22.1,19.1,29.92,East,100,0.0,0.0,88,0.00,CLR,,0.00,0.0,WeatherDisplay:10.37,2013-11-08 11:15:00,
2013-11-08 02:20:00,22.0,19.0,29.92,East,100,0.0,0.0,88,0.00,CLR,,0.00,0.0,WeatherDisplay:10.37,2013-11-08 11:20:00,
2013-11-08 02:25:00,21.9,18.9,29.92,East,100,0.0,0.0,88,0.00,CLR,,0.00,0.0,WeatherDisplay:10.37,2013-11-08 11:25:00,
2013-11-08 02:30:00,21.9,18.9,29.93,East,100,0.0,0.0,88,0.00,CLR,,0.00,0.0,WeatherDisplay:10.37,2013-11-08 11:30:00,
2013-11-08 02:35:00,21.8,19.1,29.93,East,100,0.0,0.0,89,0.00,CLR,,0.00,0.0,WeatherDisplay:10.37,2013-11-08 11:35:00,
2013-11-08 02:40:00,21.8,19.1,29.93,East,100,0.0,0.0,89,0.00,CLR,,0.00,0.0,WeatherDisplay:10.37,2013-11-08 11:40:00,
2013-11-08 02:45:00,21.7,19.0,29.93,East,100,0.0,0.0,89,0.00,CLR,,0.00,0.0,WeatherDisplay:10.37,2013-11-08 11:45:00,
2013-11-08 02:50:00,21.7,19.0,29.93,East,100,0.0,0.0,89,0.00,CLR,,0.00,0.0,WeatherDisplay:10.37,2013-11-08 11:50:00,
2013-11-08 02:55:00,21.6,18.9,29.93,East,100,0.0,0.0,89,0.00,CLR,,0.00,0.0,WeatherDisplay:10.37,2013-11-08 11:55:00,
2013-11-08 03:00:00,21.6,18.9,29.94,East,100,0.0,0.0,89,0.00,CLR,,0.00,0.0,WeatherDisplay:10.37,2013-11-08 12:00:00,
2013-11-08 03:05:00,21.6,19.1,29.94,East,100,0.0,0.0,90,0.00,CLR,,0.00,0.0,WeatherDisplay:10.37,2013-11-08 12:05:00,
2013-11-08 03:10:00,21.6,19.1,29.94,East,100,0.0,0.0,90,0.00,CLR,,0.00,0.0,WeatherDisplay:10.37,2013-11-08 12:10:00,
2013-11-08 03:15:00,21.6,19.1,29.94,East,100,0.0,0.0,90,0.00,CLR,,0.00,0.0,WeatherDisplay:10.37,2013-11-08 12:15:00,
2013-11-08 03:20:00,21.6,19.1,29.94,East,100,0.0,0.0,90,0.00,CLR,,0.00,0.0,WeatherDisplay:10.37,2013-11-08 12:20:00,
2013-11-08 03:25:00,21.5,19.0,29.94,East,100,0.0,0.0,90,0.00,CLR,,0.00,0.0,WeatherDisplay:10.37,2013-11-08 12:25:00,
2013-11-08 03:30:00,21.5,19.0,29.95,East,100,0.0,0.0,90,0.00,CLR,,0.00,0.0,WeatherDisplay:10.37,2013-11-08 12:30:00,
2013-11-08 03:35:00,21.5,19.0,29.95,East,100,0.0,0.0,90,0.00,CLR,,0.00,0.0,WeatherDisplay:10.37,2013-11-08 12:35:00,
2013-11-08 03:40:00,21.5,19.0,29.95,East,100,0.0,0.0,90,0.00,CLR,,0.00,0.0,WeatherDisplay:10.37,2013-11-08 12:40:00,
2013-11-08 03:45:00,21.4,18.9,29.95,East,100,0.0,0.0,90,0.00,CLR,,0.00,0.0,WeatherDisplay:10.37,2013-11-08 12:45:00,
2013-11-08 03:50:00,21.4,18.9,29.95,East,100,0.0,0.0,90,0.00,CLR,,0.00,0.0,WeatherDisplay:10.37,2013-11-08 12:50:00,
2013-11-08 03:55:00,21.4,18.9,29.96,East,100,0.0,0.0,90,0.00,CLR,,0.00,0.0,WeatherDisplay:10.37,2013-11-08 12:55:00,
2013-11-08 04:00:00,21.4,18.9,29.96,East,100,0.0,0.0,90,0.00,CLR,,0.00,0.0,WeatherDisplay:10.37,2013-11-08 13:00:00,
2013-11-08 04:05:00,21.5,19.0,29.95,East,100,0.0,0.0,90,0.00,BKN,,0.00,0.0,WeatherDisplay:10.37,2013-11-08 13:05:00,
2013-11-08 04:10:00,21.5,19.0,29.95,East,100,0.0,0.0,90,0.00,BKN,,0.00,0.0,WeatherDisplay:10.37,2013-11-08 13:10:00,
2013-11-08 04:15:00,21.6,19.1,29.96,East,100,0.0,0.0,90,0.00,BKN,,0.00,0.0,WeatherDisplay:10.37,2013-11-08 13:15:00,
2013-11-08 04:20:00,21.7,19.5,29.95,East,100,0.0,0.0,91,0.00,BKN,,0.00,0.0,WeatherDisplay:10.37,2013-11-08 13:20:00,
2013-11-08 04:25:00,21.9,19.7,29.95,East,100,0.0,0.0,91,0.00,BKN,,0.00,0.0,WeatherDisplay:10.37,2013-11-08 13:25:00,
2013-11-08 04:30:00,22.0,19.8,29.95,East,100,0.0,0.0,91,0.00,BKN,,0.00,0.0,WeatherDisplay:10.37,2013-11-08 13:30:00,
2013-11-08 04:35:00,22.2,20.0,29.96,East,100,0.0,0.0,91,0.00,BKN,,0.00,0.0,WeatherDisplay:10.37,2013-11-08 13:35:00,
2013-11-08 04:40:00,22.4,20.2,29.96,East,100,0.0,0.0,91,0.00,BKN,,0.00,0.0,WeatherDisplay:10.37,2013-11-08 13:40:00,
2013-11-08 04:45:00,22.6,20.4,29.96,East,100,0.0,0.0,91,0.00,BKN,,0.00,0.0,WeatherDisplay:10.37,2013-11-08 13:45:00,
2013-11-08 04:50:00,22.7,20.5,29.96,East,100,1.2,0.0,91,0.00,BKN,,0.00,0.0,WeatherDisplay:10.37,2013-11-08 13:50:00,
2013-11-08 04:55:00,22.9,20.7,29.96,East,100,1.2,1.2,91,0.00,BKN,,0.00,0.0,WeatherDisplay:10.37,2013-11-08 13:55:00,
2013-11-08 05:00:00,23.0,20.8,29.96,East,100,0.0,0.0,91,0.00,BKN,,0.00,0.0,WeatherDisplay:10.37,2013-11-08 14:00:00,
2013-11-08 05:05:00,23.1,20.9,29.96,East,100,0.0,0.0,91,0.00,OVC,,0.00,0.0,WeatherDisplay:10.37,2013-11-08 14:05:00,
2013-11-08 05:10:00,23.2,20.7,29.97,East,100,0.0,0.0,90,0.00,OVC,,0.00,0.0,WeatherDisplay:10.37,2013-11-08 14:10:00,
2013-11-08 05:15:00,23.2,20.7,29.97,East,100,0.0,0.0,90,0.00,OVC,,0.00,0.0,WeatherDisplay:10.37,2013-11-08 14:15:00,
2013-11-08 05:20:00,23.2,20.7,29.97,East,100,0.0,0.0,90,0.00,OVC,,0.00,0.0,WeatherDisplay:10.37,2013-11-08 14:20:00,
2013-11-08 05:25:00,23.2,20.7,29.98,East,100,0.0,0.0,90,0.00,OVC,,0.00,0.0,WeatherDisplay:10.37,2013-11-08 14:25:00,
2013-11-08 05:30:00,23.3,20.8,29.98,East,100,0.0,0.0,90,0.00,OVC,,0.00,0.0,WeatherDisplay:10.37,2013-11-08 14:30:00,
2013-11-08 05:35:00,23.3,20.8,29.98,East,100,0.0,0.0,90,0.00,OVC,,0.00,0.0,WeatherDisplay:10.37,2013-11-08 14:35:00,
2013-11-08 05:40:00,23.3,20.8,29.98,East,100,0.0,0.0,90,0.00,OVC,,0.00,0.0,WeatherDisplay:10.37,2013-11-08 14:40:00,
2013-11-08 05:45:00,23.3,20.8,29.98,East,100,0.0,0.0,90,0.00,OVC,,0.00,0.0,WeatherDisplay:10.37,2013-11-08 14:45:00,
2013-11-08 05:50:00,23.2,20.7,29.98,East,100,0.0,0.0,90,0.00,OVC,,0.00,0.0,WeatherDisplay:10.37,2013-11-08 14:50:00,
2013-11-08 05:55:00,23.1,20.3,29.99,East,100,0.0,0.0,89,0.00,OVC,,0.00,0.0,WeatherDisplay:10.37,2013-11-08 14:55:00,
2013-11-08 06:00:00,22.9,20.1,29.99,East,100,0.0,0.0,89,0.00,OVC,,0.00,0.0,WeatherDisplay:10.37,2013-11-08 15:00:00,
2013-11-08 06:05:00,22.8,20.0,29.99,East,100,0.0,0.0,89,0.00,OVC,,0.00,0.0,WeatherDisplay:10.37,2013-11-08 15:05:00,
2013-11-08 06:10:00,22.6,19.8,29.99,East,100,0.0,0.0,89,0.00,OVC,,0.00,0.0,WeatherDisplay:10.37,2013-11-08 15:10:00,
2013-11-08 06:16:00,22.4,19.6,29.99,East,100,0.0,0.0,89,0.00,OVC,,0.00,0.0,WeatherDisplay:10.37,2013-11-08 15:16:00,
2013-11-08 06:21:00,22.2,19.5,30.00,East,100,0.0,0.0,89,0.00,OVC,,0.00,0.0,WeatherDisplay:10.37,2013-11-08 15:21:00,
2013-11-08 06:26:00,22.1,19.4,30.00,East,100,0.0,0.0,89,0.00,OVC,,0.00,0.0,WeatherDisplay:10.37,2013-11-08 15:26:00,
2013-11-08 06:31:00,21.9,19.4,30.00,East,100,0.0,0.0,90,0.00,OVC,,0.00,0.0,WeatherDisplay:10.37,2013-11-08 15:31:00,
2013-11-08 06:36:00,21.7,19.2,30.00,East,100,0.0,0.0,90,0.00,OVC,,0.00,0.0,WeatherDisplay:10.37,2013-11-08 15:36:00,
2013-11-08 06:41:00,21.5,19.0,30.00,East,100,0.0,0.0,90,0.00,OVC,,0.00,0.0,WeatherDisplay:10.37,2013-11-08 15:41:00,
2013-11-08 06:46:00,21.2,18.7,30.00,East,100,0.0,0.0,90,0.00,OVC,,0.00,0.0,WeatherDisplay:10.37,2013-11-08 15:46:00,
2013-11-08 06:51:00,21.0,18.5,30.01,East,100,0.0,0.0,90,0.00,OVC,,0.00,0.0,WeatherDisplay:10.37,2013-11-08 15:51:00,
2013-11-08 06:56:00,20.9,18.4,30.00,East,100,1.2,1.2,90,0.00,OVC,,0.00,0.0,WeatherDisplay:10.37,2013-11-08 15:56:00,
2013-11-08 07:01:00,20.7,18.2,30.00,East,100,0.0,0.0,90,0.00,OVC,,0.00,0.0,WeatherDisplay:10.37,2013-11-08 16:01:00,
2013-11-08 07:06:00,20.5,18.3,30.00,East,100,1.2,0.0,91,0.00,CLR,,0.00,0.0,WeatherDisplay:10.37,2013-11-08 16:06:00,
2013-11-08 07:11:00,20.4,18.2,30.01,East,100,0.0,0.0,91,0.00,CLR,,0.00,0.0,WeatherDisplay:10.37,2013-11-08 16:11:00,
2013-11-08 07:16:00,20.3,18.1,30.01,East,100,0.0,0.0,91,0.00,CLR,,0.00,0.0,WeatherDisplay:10.37,2013-11-08 16:16:00,
2013-11-08 07:21:00,20.3,18.1,30.01,East,100,0.0,0.0,91,0.00,CLR,,0.00,0.0,WeatherDisplay:10.37,2013-11-08 16:21:00,
2013-11-08 07:26:00,20.2,18.2,30.01,East,100,0.0,0.0,92,0.00,CLR,,0.00,0.0,WeatherDisplay:10.37,2013-11-08 16:26:00,
2013-11-08 07:31:00,20.2,18.2,30.02,East,100,0.0,0.0,92,0.00,CLR,,0.00,0.0,WeatherDisplay:10.37,2013-11-08 16:31:00,
2013-11-08 07:36:00,20.2,18.2,30.02,East,100,1.2,1.2,92,0.00,CLR,,0.00,0.0,WeatherDisplay:10.37,2013-11-08 16:36:00,
2013-11-08 07:41:00,20.1,18.1,30.02,East,100,0.0,0.0,92,0.00,CLR,,0.00,0.0,WeatherDisplay:10.37,2013-11-08 16:41:00,
2013-11-08 07:46:00,20.0,18.1,30.02,East,100,0.0,0.0,92,0.00,CLR,,0.00,0.0,WeatherDisplay:10.37,2013-11-08 16:46:00,
2013-11-08 07:51:00,20.0,18.1,30.02,East,100,0.0,0.0,92,0.00,CLR,,0.00,0.0,WeatherDisplay:10.37,2013-11-08 16:51:00,
2013-11-08 07:56:00,19.9,18.0,30.02,East,100,0.0,0.0,92,0.00,CLR,,0.00,0.0,WeatherDisplay:10.37,2013-11-08 16:56:00,
2013-11-08 08:01:00,19.8,17.9,30.02,East,100,0.0,0.0,92,0.00,CLR,,0.00,0.0,WeatherDisplay:10.37,2013-11-08 17:01:00,
2013-11-08 08:06:00,19.7,17.8,30.02,East,100,0.0,0.0,92,0.00,CLR,,0.00,0.0,WeatherDisplay:10.37,2013-11-08 17:06:00,
2013-11-08 08:11:00,19.7,17.8,30.03,East,100,0.0,0.0,92,0.00,CLR,,0.00,0.0,WeatherDisplay:10.37,2013-11-08 17:11:00,
2013-11-08 08:16:00,19.6,17.7,30.03,East,100,0.0,0.0,92,0.00,CLR,,0.00,0.0,WeatherDisplay:10.37,2013-11-08 17:16:00,
2013-11-08 08:21:00,19.5,17.6,30.03,East,100,0.0,0.0,92,0.00,CLR,,0.00,0.0,WeatherDisplay:10.37,2013-11-08 17:21:00,
2013-11-08 08:26:00,19.4,17.5,30.03,East,100,0.0,0.0,92,0.00,CLR,,0.00,0.0,WeatherDisplay:10.37,2013-11-08 17:26:00,
2013-11-08 08:31:00,19.4,17.5,30.03,East,100,0.0,0.0,92,0.00,CLR,,0.00,0.0,WeatherDisplay:10.37,2013-11-08 17:31:00,
2013-11-08 08:36:00,19.3,17.4,30.03,East,100,0.0,0.0,92,0.00,CLR,,0.00,0.0,WeatherDisplay:10.37,2013-11-08 17:36:00,
2013-11-08 08:41:00,19.2,17.3,30.03,East,100,0.0,0.0,92,0.00,CLR,,0.00,0.0,WeatherDisplay:10.37,2013-11-08 17:41:00,
2013-11-08 08:46:00,19.1,17.2,30.03,East,100,0.0,0.0,92,0.00,CLR,,0.00,5.0,WeatherDisplay:10.37,2013-11-08 17:46:00,
2013-11-08 08:51:00,19.1,17.2,30.04,East,100,0.0,0.0,92,0.00,CLR,,0.00,5.0,WeatherDisplay:10.37,2013-11-08 17:51:00,
2013-11-08 08:56:00,19.1,17.2,30.04,East,100,0.0,0.0,92,0.00,CLR,,0.00,7.0,WeatherDisplay:10.37,2013-11-08 17:56:00,
2013-11-08 09:01:00,19.1,17.4,30.04,East,100,0.0,0.0,93,0.00,CLR,,0.00,9.0,WeatherDisplay:10.37,2013-11-08 18:01:00,
2013-11-08 09:06:00,19.1,17.2,30.04,East,100,0.0,0.0,92,0.00,CLR,,0.00,11.0,WeatherDisplay:10.37,2013-11-08 18:06:00,
2013-11-08 09:11:00,19.1,17.2,30.04,East,100,0.0,0.0,92,0.00,CLR,,0.00,11.0,WeatherDisplay:10.37,2013-11-08 18:11:00,
2013-11-08 09:16:00,19.1,17.2,30.05,East,100,0.0,0.0,92,0.00,CLR,,0.00,12.0,WeatherDisplay:10.37,2013-11-08 18:16:00,
2013-11-08 09:21:00,19.1,17.4,30.05,East,100,0.0,0.0,93,0.00,CLR,,0.00,12.0,WeatherDisplay:10.37,2013-11-08 18:21:00,
2013-11-08 09:26:00,19.2,17.3,30.05,East,100,0.0,0.0,92,0.00,CLR,,0.00,14.0,WeatherDisplay:10.37,2013-11-08 18:26:00,
2013-11-08 09:31:00,19.3,17.6,30.05,East,100,0.0,0.0,93,0.00,CLR,,0.00,14.0,WeatherDisplay:10.37,2013-11-08 18:31:00,
2013-11-08 09:36:00,19.3,17.6,30.05,East,100,0.0,0.0,93,0.00,CLR,,0.00,16.0,WeatherDisplay:10.37,2013-11-08 18:36:00,
2013-11-08 09:41:00,19.4,17.7,30.05,East,100,0.0,0.0,93,0.00,CLR,,0.00,18.0,WeatherDisplay:10.37,2013-11-08 18:41:00,
2013-11-08 09:46:00,19.5,17.8,30.05,East,100,0.0,0.0,93,0.00,CLR,,0.00,18.0,WeatherDisplay:10.37,2013-11-08 18:46:00,
2013-11-08 09:51:00,19.7,18.0,30.06,East,100,0.0,0.0,93,0.00,CLR,,0.00,19.0,WeatherDisplay:10.37,2013-11-08 18:51:00,
2013-11-08 09:56:00,19.8,18.1,30.06,East,100,0.0,0.0,93,0.00,CLR,,0.00,23.0,WeatherDisplay:10.37,2013-11-08 18:56:00,
2013-11-08 10:01:00,20.1,18.4,30.07,East,100,0.0,0.0,93,0.00,CLR,,0.00,21.0,WeatherDisplay:10.37,2013-11-08 19:01:00,
2013-11-08 10:06:00,20.3,18.6,30.07,East,100,1.2,0.0,93,0.00,CLR,,0.00,23.0,WeatherDisplay:10.37,2013-11-08 19:06:00,
2013-11-08 10:11:00,20.5,18.8,30.07,East,100,0.0,0.0,93,0.00,CLR,,0.00,23.0,WeatherDisplay:10.37,2013-11-08 19:11:00,
2013-11-08 10:16:00,20.6,18.9,30.07,East,100,0.0,0.0,93,0.00,CLR,,0.00,23.0,WeatherDisplay:10.37,2013-11-08 19:16:00,
2013-11-08 10:21:00,20.8,19.3,30.07,East,100,1.2,1.2,94,0.00,CLR,,0.00,23.0,WeatherDisplay:10.37,2013-11-08 19:21:00,
2013-11-08 10:26:00,21.2,19.7,30.07,East,100,0.0,0.0,94,0.00,CLR,,0.00,25.0,WeatherDisplay:10.37,2013-11-08 19:26:00,
2013-11-08 10:31:00,21.6,20.1,30.07,East,100,0.0,0.0,94,0.00,CLR,,0.00,25.0,WeatherDisplay:10.37,2013-11-08 19:31:00,
2013-11-08 10:36:00,22.0,20.3,30.07,East,100,0.0,0.0,93,0.00,CLR,,0.00,26.0,WeatherDisplay:10.37,2013-11-08 19:36:00,
2013-11-08 10:41:00,22.6,20.9,30.07,East,100,2.3,2.3,93,0.00,CLR,,0.00,26.0,WeatherDisplay:10.37,2013-11-08 19:41:00,
2013-11-08 10:46:00,23.0,21.0,30.07,East,100,1.2,0.0,92,0.00,CLR,,0.00,26.0,WeatherDisplay:10.37,2013-11-08 19:46:00,
2013-11-08 10:51:00,23.4,21.2,30.08,East,100,1.2,0.0,91,0.00,CLR,,0.00,26.0,WeatherDisplay:10.37,2013-11-08 19:51:00,
2013-11-08 10:56:00,23.8,21.0,30.08,East,100,2.3,2.3,89,0.00,CLR,,0.00,46.0,WeatherDisplay:10.37,2013-11-08 19:56:00,
2013-11-08 11:01:00,24.3,21.3,30.08,East,100,1.2,1.2,88,0.00,CLR,,0.00,56.0,WeatherDisplay:10.37,2013-11-08 20:01:00,
2013-11-08 11:06:00,25.0,21.4,30.08,East,100,2.3,2.3,86,0.00,CLR,,0.00,53.0,WeatherDisplay:10.37,2013-11-08 20:06:00,
2013-11-08 11:11:00,25.5,21.3,30.08,East,100,2.3,2.3,84,0.00,CLR,,0.00,67.0,WeatherDisplay:10.37,2013-11-08 20:11:00,
2013-11-08 11:16:00,26.1,21.4,30.08,SE,125,1.2,0.0,82,0.00,CLR,,0.00,91.0,WeatherDisplay:10.37,2013-11-08 20:16:00,
2013-11-08 11:21:00,26.8,21.5,30.08,ESE,111,3.5,3.5,80,0.00,CLR,,0.00,156.0,WeatherDisplay:10.37,2013-11-08 20:21:00,
2013-11-08 11:26:00,27.6,21.6,30.09,ESE,119,3.5,3.5,78,0.00,CLR,,0.00,165.0,WeatherDisplay:10.37,2013-11-08 20:26:00,
2013-11-08 11:31:00,28.3,21.7,30.09,ESE,103,3.5,3.5,76,0.00,CLR,,0.00,174.0,WeatherDisplay:10.37,2013-11-08 20:31:00,
2013-11-08 11:36:00,28.7,22.1,30.09,ESE,103,1.2,0.0,76,0.00,CLR,,0.00,109.0,WeatherDisplay:10.37,2013-11-08 20:36:00,
2013-11-08 11:41:00,29.2,22.3,30.09,ESE,103,1.2,1.2,75,0.00,CLR,,0.00,174.0,WeatherDisplay:10.37,2013-11-08 20:41:00,
2013-11-08 11:46:00,29.7,22.4,30.09,ESE,103,2.0,2.0,74,0.00,CLR,,0.00,144.0,WeatherDisplay:10.37,2013-11-08 20:46:00,
2013-11-08 11:51:00,30.0,21.7,30.09,ESE,102,2.3,2.3,71,0.00,CLR,,0.00,179.0,WeatherDisplay:10.37,2013-11-08 20:51:00,
2013-11-08 11:56:00,30.3,22.0,30.09,East,95,3.5,3.5,71,0.00,CLR,,0.00,163.0,WeatherDisplay:10.37,2013-11-08 20:56:00,
2013-11-08 12:01:00,30.6,22.0,30.09,ESE,107,3.5,3.5,70,0.00,CLR,,0.00,144.0,WeatherDisplay:10.37,2013-11-08 21:01:00,
2013-11-08 12:06:00,30.7,21.7,30.09,ESE,110,3.5,3.5,69,0.00,CLR,,0.00,54.0,WeatherDisplay:10.37,2013-11-08 21:06:00,
2013-11-08 12:11:00,30.7,21.7,30.09,SE,133,2.3,2.3,69,0.00,CLR,,0.00,39.0,WeatherDisplay:10.37,2013-11-08 21:11:00,
2013-11-08 12:16:00,30.7,21.7,30.09,SE,133,1.2,1.2,69,0.00,CLR,,0.00,44.0,WeatherDisplay:10.37,2013-11-08 21:16:00,
2013-11-08 12:21:00,30.8,22.2,30.10,SE,133,3.5,3.5,70,0.00,CLR,,0.00,49.0,WeatherDisplay:10.37,2013-11-08 21:21:00,
2013-11-08 12:26:00,30.9,22.3,30.10,SE,133,2.0,2.0,70,0.00,CLR,,0.00,42.0,WeatherDisplay:10.37,2013-11-08 21:26:00,
2013-11-08 12:31:00,31.0,22.0,30.10,ESE,103,3.0,3.0,69,0.00,CLR,,0.00,114.0,WeatherDisplay:10.37,2013-11-08 21:31:00,
2013-11-08 12:36:00,31.2,21.9,30.10,ESE,120,2.3,2.3,68,0.00,CLR,,0.00,109.0,WeatherDisplay:10.37,2013-11-08 21:36:00,
2013-11-08 12:41:00,31.4,22.1,30.10,ESE,120,2.3,2.3,68,0.00,CLR,,0.00,95.0,WeatherDisplay:10.37,2013-11-08 21:41:00,
2013-11-08 12:46:00,31.5,22.5,30.10,ESE,120,1.2,1.2,69,0.00,CLR,,0.00,79.0,WeatherDisplay:10.37,2013-11-08 21:46:00,
2013-11-08 12:51:00,31.6,22.9,30.10,ESE,120,1.2,1.2,70,0.00,CLR,,0.00,37.0,WeatherDisplay:10.37,2013-11-08 21:51:00,
2013-11-08 12:56:00,31.7,22.3,30.10,East,94,3.0,3.0,68,0.00,CLR,,0.00,56.0,WeatherDisplay:10.37,2013-11-08 21:56:00,
2013-11-08 13:01:00,31.9,22.9,30.10,East,92,2.3,2.3,69,0.00,CLR,,0.00,53.0,WeatherDisplay:10.37,2013-11-08 22:01:00,
2013-11-08 13:06:00,32.0,22.6,30.11,East,92,3.5,3.5,68,0.00,CLR,,0.00,88.0,WeatherDisplay:10.37,2013-11-08 22:06:00,
2013-11-08 13:11:00,32.1,22.4,30.10,East,92,4.6,4.6,67,0.00,CLR,,0.00,44.0,WeatherDisplay:10.37,2013-11-08 22:11:00,
2013-11-08 13:16:00,32.2,22.1,30.10,SE,126,5.0,5.0,66,0.00,CLR,,0.00,39.0,WeatherDisplay:10.37,2013-11-08 22:16:00,
2013-11-08 13:21:00,32.3,22.2,30.10,East,98,2.3,2.3,66,0.00,CLR,,0.00,54.0,WeatherDisplay:10.37,2013-11-08 22:21:00,
2013-11-08 13:26:00,32.4,22.3,30.10,ESE,103,6.9,6.9,66,0.00,CLR,,0.00,47.0,WeatherDisplay:10.37,2013-11-08 22:26:00,
2013-11-08 13:31:00,32.5,22.4,30.11,East,84,3.5,3.5,66,0.00,CLR,,0.00,47.0,WeatherDisplay:10.37,2013-11-08 22:31:00,
2013-11-08 13:36:00,32.6,22.5,30.11,SE,124,3.5,3.5,66,0.00,CLR,,0.00,35.0,WeatherDisplay:10.37,2013-11-08 22:36:00,
2013-11-08 13:41:00,32.7,22.6,30.12,SE,127,2.0,2.0,66,0.00,CLR,,0.00,35.0,WeatherDisplay:10.37,2013-11-08 22:41:00,
2013-11-08 13:46:00,32.8,22.3,30.12,ESE,108,3.5,3.5,65,0.00,CLR,,0.00,33.0,WeatherDisplay:10.37,2013-11-08 22:46:00,
2013-11-08 13:51:00,32.8,22.7,30.12,ESE,108,3.0,3.0,66,0.00,CLR,,0.00,33.0,WeatherDisplay:10.37,2013-11-08 22:51:00,
2013-11-08 13:56:00,32.8,23.0,30.12,East,88,3.5,3.5,67,0.00,CLR,,0.00,33.0,WeatherDisplay:10.37,2013-11-08 22:56:00,
2013-11-08 14:01:00,32.8,23.0,30.12,East,88,2.0,2.0,67,0.00,CLR,,0.00,42.0,WeatherDisplay:10.37,2013-11-08 23:01:00,
2013-11-08 14:06:00,32.8,22.7,30.12,East,88,3.5,3.5,66,0.00,CLR,,0.00,35.0,WeatherDisplay:10.37,2013-11-08 23:06:00,
2013-11-08 14:11:00,32.9,22.8,30.11,East,88,3.0,3.0,66,0.00,CLR,,0.00,40.0,WeatherDisplay:10.37,2013-11-08 23:11:00,
2013-11-08 14:16:00,33.0,22.9,30.12,ENE,57,4.6,4.6,66,0.00,CLR,,0.00,33.0,WeatherDisplay:10.37,2013-11-08 23:16:00,
2013-11-08 14:21:00,33.0,22.5,30.12,ESE,107,3.0,3.0,65,0.00,CLR,,0.00,33.0,WeatherDisplay:10.37,2013-11-08 23:21:00,
2013-11-08 14:26:00,33.1,22.6,30.12,SE,140,1.2,1.2,65,0.00,CLR,,0.00,33.0,WeatherDisplay:10.37,2013-11-08 23:26:00,
2013-11-08 14:31:00,33.1,23.3,30.12,ESE,109,3.5,3.5,67,0.00,CLR,,0.00,33.0,WeatherDisplay:10.37,2013-11-08 23:31:00,
2013-11-08 14:36:00,33.1,23.3,30.13,ESE,109,2.3,2.3,67,0.00,CLR,,0.00,35.0,WeatherDisplay:10.37,2013-11-08 23:36:00,
2013-11-08 14:41:00,33.1,23.3,30.13,ESE,109,2.3,2.3,67,0.00,CLR,,0.00,42.0,WeatherDisplay:10.37,2013-11-08 23:41:00,
2013-11-08 14:46:00,33.1,23.3,30.13,ESE,109,1.2,0.0,67,0.00,CLR,,0.00,32.0,WeatherDisplay:10.37,2013-11-08 23:46:00,
2013-11-08 14:51:00,33.0,23.2,30.14,ESE,109,1.2,1.2,67,0.00,CLR,,0.00,30.0,WeatherDisplay:10.37,2013-11-08 23:51:00,
2013-11-08 14:56:00,33.0,23.6,30.14,ESE,109,1.2,0.0,68,0.00,CLR,,0.00,30.0,WeatherDisplay:10.37,2013-11-08 23:56:00,
2013-11-08 15:01:00,32.9,23.8,30.14,ESE,109,0.0,0.0,69,0.00,CLR,,0.00,32.0,WeatherDisplay:10.37,2013-11-09 00:01:00,
2013-11-08 15:06:00,32.8,23.4,30.14,ESE,109,1.2,0.0,68,0.00,CLR,,0.00,35.0,WeatherDisplay:10.37,2013-11-09 00:06:00,
2013-11-08 15:11:00,32.8,23.7,30.13,ESE,109,2.3,2.3,69,0.00,CLR,,0.00,40.0,WeatherDisplay:10.37,2013-11-09 00:11:00,
2013-11-08 15:16:00,32.7,23.6,30.14,ESE,109,1.2,0.0,69,0.00,CLR,,0.00,44.0,WeatherDisplay:10.37,2013-11-09 00:16:00,
2013-11-08 15:21:00,32.7,23.6,30.14,ESE,109,0.0,0.0,69,0.00,CLR,,0.00,42.0,WeatherDisplay:10.37,2013-11-09 00:21:00,
2013-11-08 15:26:00,32.5,23.8,30.14,ESE,109,1.2,0.0,70,0.00,CLR,,0.00,35.0,WeatherDisplay:10.37,2013-11-09 00:26:00,
2013-11-08 15:31:00,32.4,23.7,30.14,ESE,109,1.2,0.0,70,0.00,CLR,,0.00,30.0,WeatherDisplay:10.37,2013-11-09 00:31:00,
2013-11-08 15:36:00,32.4,23.7,30.15,ESE,109,0.0,0.0,70,0.00,CLR,,0.00,25.0,WeatherDisplay:10.37,2013-11-09 00:36:00,
2013-11-08 15:41:00,32.2,23.8,30.15,ESE,109,1.2,1.2,71,0.00,CLR,,0.00,19.0,WeatherDisplay:10.37,2013-11-09 00:41:00,
2013-11-08 15:46:00,32.0,23.7,30.14,ESE,109,0.0,0.0,71,0.00,CLR,,0.00,16.0,WeatherDisplay:10.37,2013-11-09 00:46:00,
2013-11-08 15:51:00,31.8,23.5,30.15,ESE,109,0.0,0.0,71,0.00,CLR,,0.00,14.0,WeatherDisplay:10.37,2013-11-09 00:51:00,
2013-11-08 15:56:00,31.5,23.5,30.15,ESE,109,0.0,0.0,72,0.00,CLR,,0.00,16.0,WeatherDisplay:10.37,2013-11-09 00:56:00,
2013-11-08 16:01:00,31.1,23.1,30.14,ESE,109,0.0,0.0,72,0.00,CLR,,0.00,16.0,WeatherDisplay:10.37,2013-11-09 01:01:00,
2013-11-08 16:06:00,30.7,23.4,30.15,ESE,109,0.0,0.0,74,0.00,CLR,,0.00,14.0,WeatherDisplay:10.37,2013-11-09 01:06:00,
2013-11-08 16:11:00,30.3,23.0,30.15,ESE,109,0.0,0.0,74,0.00,CLR,,0.00,12.0,WeatherDisplay:10.37,2013-11-09 01:11:00,
2013-11-08 16:17:00,30.0,23.0,30.14,ESE,109,0.0,0.0,75,0.00,CLR,,0.00,12.0,WeatherDisplay:10.37,2013-11-09 01:17:00,
2013-11-08 16:22:00,29.6,22.6,30.14,ESE,109,0.0,0.0,75,0.00,CLR,,0.00,11.0,WeatherDisplay:10.37,2013-11-09 01:22:00,
2013-11-08 16:27:00,29.3,22.4,30.15,ESE,109,0.0,0.0,75,0.00,CLR,,0.00,11.0,WeatherDisplay:10.37,2013-11-09 01:27:00,
2013-11-08 16:32:00,29.0,22.4,30.15,ESE,109,0.0,0.0,76,0.00,CLR,,0.00,11.0,WeatherDisplay:10.37,2013-11-09 01:32:00,
2013-11-08 16:37:00,28.6,22.0,30.15,ESE,109,0.0,0.0,76,0.00,CLR,,0.00,11.0,WeatherDisplay:10.37,2013-11-09 01:37:00,
2013-11-08 16:42:00,28.3,22.0,30.15,ESE,109,0.0,0.0,77,0.00,CLR,,0.00,9.0,WeatherDisplay:10.37,2013-11-09 01:42:00,
2013-11-08 16:47:00,28.1,22.1,30.16,ESE,109,0.0,0.0,78,0.00,CLR,,0.00,7.0,WeatherDisplay:10.37,2013-11-09 01:47:00,
2013-11-08 16:52:00,27.8,21.8,30.15,ESE,109,0.0,0.0,78,0.00,CLR,,0.00,5.0,WeatherDisplay:10.37,2013-11-09 01:52:00,
2013-11-08 16:57:00,27.6,21.9,30.15,ESE,109,0.0,0.0,79,0.00,CLR,,0.00,5.0,WeatherDisplay:10.37,2013-11-09 01:57:00,
2013-11-08 17:02:00,27.4,21.7,30.15,ESE,109,0.0,0.0,79,0.00,CLR,,0.00,0.0,WeatherDisplay:10.37,2013-11-09 02:02:00,
2013-11-08 17:07:00,27.2,21.5,30.15,ESE,109,0.0,0.0,79,0.00,CLR,,0.00,0.0,WeatherDisplay:10.37,2013-11-09 02:07:00,
2013-11-08 17:12:00,27.0,21.7,30.15,ESE,109,1.0,1.0,80,0.00,CLR,,0.00,0.0,WeatherDisplay:10.37,2013-11-09 02:12:00,
2013-11-08 17:17:00,26.9,21.8,30.15,ESE,109,0.0,0.0,81,0.00,CLR,,0.00,0.0,WeatherDisplay:10.37,2013-11-09 02:17:00,
2013-11-08 17:22:00,26.7,21.7,30.15,ESE,109,0.0,0.0,81,0.00,CLR,,0.00,0.0,WeatherDisplay:10.37,2013-11-09 02:22:00,
2013-11-08 17:27:00,26.6,21.6,30.16,ESE,109,0.0,0.0,81,0.00,CLR,,0.00,0.0,WeatherDisplay:10.37,2013-11-09 02:27:00,
2013-11-08 17:32:00,26.3,21.3,30.16,ESE,109,0.0,0.0,81,0.00,CLR,,0.00,0.0,WeatherDisplay:10.37,2013-11-09 02:32:00,
2013-11-08 17:37:00,26.1,21.4,30.17,ESE,109,0.0,0.0,82,0.00,CLR,,0.00,0.0,WeatherDisplay:10.37,2013-11-09 02:37:00,
2013-11-08 17:42:00,25.9,21.2,30.17,ESE,109,0.0,0.0,82,0.00,CLR,,0.00,0.0,WeatherDisplay:10.37,2013-11-09 02:42:00,
2013-11-08 17:47:00,25.7,21.0,30.16,ESE,109,0.0,0.0,82,0.00,CLR,,0.00,0.0,WeatherDisplay:10.37,2013-11-09 02:47:00,
2013-11-08 17:52:00,25.6,21.2,30.17,ESE,109,0.0,0.0,83,0.00,CLR,,0.00,0.0,WeatherDisplay:10.37,2013-11-09 02:52:00,
2013-11-08 17:57:00,25.4,21.0,30.17,ESE,109,0.0,0.0,83,0.00,CLR,,0.00,0.0,WeatherDisplay:10.37,2013-11-09 02:57:00,
2013-11-08 18:02:00,25.3,21.1,30.17,ESE,109,0.0,0.0,84,0.00,CLR,,0.00,0.0,WeatherDisplay:10.37,2013-11-09 03:02:00,
2013-11-08 18:07:00,25.2,21.0,30.17,ESE,109,0.0,0.0,84,0.00,CLR,,0.00,0.0,WeatherDisplay:10.37,2013-11-09 03:07:00,
2013-11-08 18:12:00,25.1,20.9,30.17,ESE,109,0.0,0.0,84,0.00,CLR,,0.00,0.0,WeatherDisplay:10.37,2013-11-09 03:12:00,
2013-11-08 18:17:00,24.9,21.0,30.17,ESE,109,0.0,0.0,85,0.00,CLR,,0.00,0.0,WeatherDisplay:10.37,2013-11-09 03:17:00,
2013-11-08 18:22:00,24.8,20.9,30.18,ESE,109,0.0,0.0,85,0.00,CLR,,0.00,0.0,WeatherDisplay:10.37,2013-11-09 03:22:00,
2013-11-08 18:27:00,24.6,20.7,30.18,ESE,109,0.0,0.0,85,0.00,CLR,,0.00,0.0,WeatherDisplay:10.37,2013-11-09 03:27:00,
2013-11-08 18:32:00,24.5,20.6,30.19,ESE,109,0.0,0.0,85,0.00,CLR,,0.00,0.0,WeatherDisplay:10.37,2013-11-09 03:32:00,
2013-11-08 18:37:00,24.3,20.4,30.18,ESE,109,0.0,0.0,85,0.00,CLR,,0.00,0.0,WeatherDisplay:10.37,2013-11-09 03:37:00,
2013-11-08 18:42:00,24.2,20.3,30.18,ESE,109,0.0,0.0,85,0.00,CLR,,0.00,0.0,WeatherDisplay:10.37,2013-11-09 03:42:00,
2013-11-08 18:47:00,24.0,20.1,30.19,ESE,109,0.0,0.0,85,0.00,CLR,,0.00,0.0,WeatherDisplay:10.37,2013-11-09 03:47:00,
2013-11-08 18:52:00,23.9,20.0,30.19,ESE,109,0.0,0.0,85,0.00,CLR,,0.00,0.0,WeatherDisplay:10.37,2013-11-09 03:52:00,
2013-11-08 18:57:00,23.7,20.1,30.19,ESE,109,0.0,0.0,86,0.00,CLR,,0.00,0.0,WeatherDisplay:10.37,2013-11-09 03:57:00,
2013-11-08 19:02:00,23.6,20.0,30.19,ESE,109,0.0,0.0,86,0.00,CLR,,0.00,0.0,WeatherDisplay:10.37,2013-11-09 04:02:00,
2013-11-08 19:07:00,23.4,19.8,30.19,ESE,109,0.0,0.0,86,0.00,CLR,,0.00,0.0,WeatherDisplay:10.37,2013-11-09 04:07:00,
2013-11-08 19:12:00,23.3,19.7,30.18,ESE,109,0.0,0.0,86,0.00,CLR,,0.00,0.0,WeatherDisplay:10.37,2013-11-09 04:12:00,
2013-11-08 19:17:00,23.2,19.9,30.18,ESE,109,0.0,0.0,87,0.00,CLR,,0.00,0.0,WeatherDisplay:10.37,2013-11-09 04:17:00,
2013-11-08 19:22:00,23.1,19.8,30.19,ESE,109,0.0,0.0,87,0.00,CLR,,0.00,0.0,WeatherDisplay:10.37,2013-11-09 04:22:00,
2013-11-08 19:27:00,23.0,19.7,30.19,ESE,109,0.0,0.0,87,0.00,CLR,,0.00,0.0,WeatherDisplay:10.37,2013-11-09 04:27:00,
2013-11-08 19:32:00,23.0,19.7,30.19,ESE,109,0.0,0.0,87,0.00,CLR,,0.00,0.0,WeatherDisplay:10.37,2013-11-09 04:32:00,
2013-11-08 19:37:00,22.8,19.5,30.19,ESE,109,0.0,0.0,87,0.00,CLR,,0.00,0.0,WeatherDisplay:10.37,2013-11-09 04:37:00,
2013-11-08 19:42:00,22.7,19.7,30.19,ESE,109,0.0,0.0,88,0.00,CLR,,0.00,0.0,WeatherDisplay:10.37,2013-11-09 04:42:00,
2013-11-08 19:47:00,22.7,19.7,30.19,ESE,109,0.0,0.0,88,0.00,CLR,,0.00,0.0,WeatherDisplay:10.37,2013-11-09 04:47:00,
2013-11-08 19:52:00,22.5,19.5,30.19,ESE,109,0.0,0.0,88,0.00,CLR,,0.00,0.0,WeatherDisplay:10.37,2013-11-09 04:52:00,
2013-11-08 19:57:00,22.5,19.5,30.19,ESE,109,0.0,0.0,88,0.00,CLR,,0.00,0.0,WeatherDisplay:10.37,2013-11-09 04:57:00,
2013-11-08 20:01:00,22.4,19.4,30.19,ESE,109,0.0,0.0,88,0.00,CLR,,0.00,0.0,WeatherDisplay:10.37,2013-11-09 05:01:00,
2013-11-08 20:03:00,22.4,19.4,30.19,ESE,109,0.0,0.0,88,0.00,CLR,,0.00,0.0,WeatherDisplay:10.37,2013-11-09 05:03:00,
2013-11-08 20:08:00,22.2,19.2,30.19,ESE,109,0.0,0.0,88,0.00,CLR,,0.00,0.0,WeatherDisplay:10.37,2013-11-09 05:08:00,
2013-11-08 20:13:00,22.1,19.1,30.19,ESE,109,0.0,0.0,88,0.00,CLR,,0.00,0.0,WeatherDisplay:10.37,2013-11-09 05:13:00,
2013-11-08 20:18:00,22.0,19.0,30.19,ESE,109,0.0,0.0,88,0.00,CLR,,0.00,0.0,WeatherDisplay:10.37,2013-11-09 05:18:00,
2013-11-08 20:23:00,21.8,18.8,30.19,ESE,109,0.0,0.0,88,0.00,CLR,,0.00,0.0,WeatherDisplay:10.37,2013-11-09 05:23:00,
2013-11-08 20:28:00,21.7,19.0,30.19,ESE,109,0.0,0.0,89,0.00,CLR,,0.00,0.0,WeatherDisplay:10.37,2013-11-09 05:28:00,
2013-11-08 20:33:00,21.6,18.9,30.19,ESE,109,0.0,0.0,89,0.00,CLR,,0.00,0.0,WeatherDisplay:10.37,2013-11-09 05:33:00,
2013-11-08 20:38:00,21.5,18.8,30.19,ESE,109,0.0,0.0,89,0.00,CLR,,0.00,0.0,WeatherDisplay:10.37,2013-11-09 05:38:00,
2013-11-08 20:43:00,21.4,18.7,30.19,ESE,109,1.2,1.2,89,0.00,CLR,,0.00,0.0,WeatherDisplay:10.37,2013-11-09 05:43:00,
2013-11-08 20:48:00,21.4,18.7,30.19,ESE,109,1.2,0.0,89,0.00,CLR,,0.00,0.0,WeatherDisplay:10.37,2013-11-09 05:48:00,
2013-11-08 20:53:00,21.3,18.6,30.19,ESE,109,2.3,2.3,89,0.00,CLR,,0.00,0.0,WeatherDisplay:10.37,2013-11-09 05:53:00,
2013-11-08 20:58:00,21.2,18.5,30.19,ESE,109,1.0,1.0,89,0.00,CLR,,0.00,0.0,WeatherDisplay:10.37,2013-11-09 05:58:00,
2013-11-08 21:03:00,21.2,18.7,30.19,ESE,109,2.3,2.3,90,0.00,CLR,,0.00,0.0,WeatherDisplay:10.37,2013-11-09 06:03:00,
2013-11-08 21:08:00,21.3,18.8,30.19,ESE,109,1.2,1.2,90,0.00,CLR,,0.00,0.0,WeatherDisplay:10.37,2013-11-09 06:08:00,
2013-11-08 21:13:00,21.5,19.0,30.18,ESE,109,1.2,1.2,90,0.00,CLR,,0.00,0.0,WeatherDisplay:10.37,2013-11-09 06:13:00,
2013-11-08 21:18:00,21.6,19.1,30.19,ESE,109,0.0,0.0,90,0.00,CLR,,0.00,0.0,WeatherDisplay:10.37,2013-11-09 06:18:00,
2013-11-08 21:23:00,21.6,19.1,30.19,ESE,109,1.2,1.2,90,0.00,CLR,,0.00,0.0,WeatherDisplay:10.37,2013-11-09 06:23:00,
2013-11-08 21:28:00,21.7,19.2,30.19,ESE,109,0.0,0.0,90,0.00,CLR,,0.00,0.0,WeatherDisplay:10.37,2013-11-09 06:28:00,
2013-11-08 21:33:00,21.7,19.0,30.19,ESE,109,0.0,0.0,89,0.00,CLR,,0.00,0.0,WeatherDisplay:10.37,2013-11-09 06:33:00,
2013-11-08 21:38:00,21.6,18.9,30.18,ESE,109,1.2,0.0,89,0.00,CLR,,0.00,0.0,WeatherDisplay:10.37,2013-11-09 06:38:00,
2013-11-08 21:43:00,21.6,18.9,30.19,ESE,109,1.2,0.0,89,0.00,CLR,,0.00,0.0,WeatherDisplay:10.37,2013-11-09 06:43:00,
2013-11-08 21:48:00,21.5,19.0,30.19,ESE,109,1.2,1.2,90,0.00,CLR,,0.00,0.0,WeatherDisplay:10.37,2013-11-09 06:48:00,
2013-11-08 21:53:00,21.6,19.1,30.19,ESE,109,1.2,1.2,90,0.00,CLR,,0.00,0.0,WeatherDisplay:10.37,2013-11-09 06:53:00,
2013-11-08 21:58:00,21.6,19.1,30.19,ESE,109,1.2,1.2,90,0.00,CLR,,0.00,0.0,WeatherDisplay:10.37,2013-11-09 06:58:00,
2013-11-08 22:03:00,21.6,18.9,30.19,ESE,109,1.2,1.2,89,0.00,CLR,,0.00,0.0,WeatherDisplay:10.37,2013-11-09 07:03:00,
2013-11-08 22:08:00,21.5,19.0,30.18,ESE,109,1.2,0.0,90,0.00,CLR,,0.00,0.0,WeatherDisplay:10.37,2013-11-09 07:08:00,
2013-11-08 22:13:00,21.6,19.1,30.19,ESE,109,1.2,1.2,90,0.00,CLR,,0.00,0.0,WeatherDisplay:10.37,2013-11-09 07:13:00,
2013-11-08 22:18:00,21.8,19.3,30.19,ESE,109,0.0,0.0,90,0.00,CLR,,0.00,0.0,WeatherDisplay:10.37,2013-11-09 07:18:00,
2013-11-08 22:23:00,21.8,19.3,30.20,ESE,109,1.2,1.2,90,0.00,CLR,,0.00,0.0,WeatherDisplay:10.37,2013-11-09 07:23:00,
2013-11-08 22:28:00,21.9,19.2,30.20,ESE,109,1.2,0.0,89,0.00,CLR,,0.00,0.0,WeatherDisplay:10.37,2013-11-09 07:28:00,
2013-11-08 22:33:00,21.8,19.1,30.20,ESE,109,1.2,0.0,89,0.00,CLR,,0.00,0.0,WeatherDisplay:10.37,2013-11-09 07:33:00,
2013-11-08 22:38:00,21.8,19.1,30.19,ESE,109,1.2,0.0,89,0.00,CLR,,0.00,0.0,WeatherDisplay:10.37,2013-11-09 07:38:00,
2013-11-08 22:43:00,21.9,19.2,30.19,ESE,109,1.2,1.2,89,0.00,CLR,,0.00,0.0,WeatherDisplay:10.37,2013-11-09 07:43:00,
2013-11-08 22:48:00,22.0,19.3,30.19,ESE,109,1.2,1.2,89,0.00,CLR,,0.00,0.0,WeatherDisplay:10.37,2013-11-09 07:48:00,
2013-11-08 22:53:00,22.0,19.3,30.18,ESE,109,1.2,1.2,89,0.00,CLR,,0.00,0.0,WeatherDisplay:10.37,2013-11-09 07:53:00,
2013-11-08 22:58:00,22.1,19.4,30.19,ESE,109,1.2,1.2,89,0.00,CLR,,0.00,0.0,WeatherDisplay:10.37,2013-11-09 07:58:00,
2013-11-08 23:03:00,22.2,19.5,30.20,ESE,109,0.0,0.0,89,0.00,CLR,,0.00,0.0,WeatherDisplay:10.37,2013-11-09 08:03:00,
2013-11-08 23:08:00,22.3,19.3,30.20,ESE,109,1.2,0.0,88,0.00,CLR,,0.00,0.0,WeatherDisplay:10.37,2013-11-09 08:08:00,
2013-11-08 23:13:00,22.3,19.3,30.20,ESE,109,0.0,0.0,88,0.00,CLR,,0.00,0.0,WeatherDisplay:10.37,2013-11-09 08:13:00,
2013-11-08 23:18:00,22.1,19.1,30.20,ESE,109,0.0,0.0,88,0.00,CLR,,0.00,0.0,WeatherDisplay:10.37,2013-11-09 08:18:00,
2013-11-08 23:23:00,22.0,19.0,30.20,ESE,109,0.0,0.0,88,0.00,CLR,,0.00,0.0,WeatherDisplay:10.37,2013-11-09 08:23:00,
2013-11-08 23:28:00,21.8,18.8,30.20,ESE,109,1.2,1.2,88,0.00,CLR,,0.00,0.0,WeatherDisplay:10.37,2013-11-09 08:28:00,
2013-11-08 23:33:00,21.7,19.0,30.20,ESE,109,2.3,2.3,89,0.00,CLR,,0.00,0.0,WeatherDisplay:10.37,2013-11-09 08:33:00,
2013-11-08 23:38:00,21.6,18.9,30.20,ESE,109,2.3,2.3,89,0.00,CLR,,0.00,0.0,WeatherDisplay:10.37,2013-11-09 08:38:00,
2013-11-08 23:43:00,21.6,18.9,30.20,ESE,109,2.3,2.3,89,0.00,CLR,,0.00,0.0,WeatherDisplay:10.37,2013-11-09 08:43:00,
2013-11-08 23:48:00,21.7,19.0,30.20,ESE,109,1.2,1.2,89,0.00,CLR,,0.00,0.0,WeatherDisplay:10.37,2013-11-09 08:48:00,
2013-11-08 23:53:00,21.8,19.1,30.20,ESE,109,1.2,1.2,89,0.00,CLR,,0.00,0.0,WeatherDisplay:10.37,2013-11-09 08:53:00,
2013-11-08 23:58:00,22.0,19.3,30.20,ESE,109,0.0,0.0,89,0.00,CLR,,0.00,0.0,WeatherDisplay:10.37,2013-11-09 08:58:00,